Tracking 35237 objects as of 6-Sep-2026
HD Live streaming from Space Station
objects crossing your sky now

STARLINK-36818

Track STARLINK-36818 now!
10-day predictions
STARLINK-36818 is classified as:


NORAD ID: 67879
Int'l Code: 2026-035A
Launch date: February 21, 2026
Source: United States (US)
Launch site: AIR FORCE WESTERN TEST RANGE (AFWTR)
Your satellite tracking list
Your tracking list is empty




NASA's NSSDC Master Catalog

Two Line Element Set (TLE):
1 67879U 26035A   26249.05123315  .00010694  00000-0  33312-3 0  9991
2 67879  97.2838 181.0268 0001610  91.8318 268.3109 15.33443734 31628
Source of the keplerian elements: AFSPC